Regional Weather Roundup
Issued by NWS

Home | Current Version | Previous Version | Text Only | Print | Product List | Glossary On
Versions: 1 2 3 4 5 6 7 8 9 10 11 12 13 14 15 16 17
000
ASCA42 TJSJ 202110
RWRPR
PUERTO RICO/U.S. VIRGIN ISLANDS HOURLY WEATHER ROUNDUP
NATIONAL WEATHER SERVICE SAN JUAN PR
500 PM AST WED SEP 20 2017

PRZ001>002-007>008-010-202200-
PUERTO RICO

CITY           SKY/WX    TMP DP  RH WIND       PRES   REMARKS
SAN JUAN LMM   NOT AVBL
$$

VIZ001>002-202200-
U.S. VIRGIN ISLANDS

CITY           SKY/WX    TMP DP  RH WIND       PRES   REMARKS
$$

HOURLY WEATHER ROUNDUP FOR THE NEWS MEDIA

CITY           SKY/WX    TMP DP  RH WIND       PRES   REMARKS
ORLANDO        SUNNY     88  67  49 E15       29.97  HX  91
NEW YORK       PTSUNNY   79  65  62 N18       29.88R
NEWARK         PTSUNNY   79  63  57 N15G25    29.89R
CHICAGO        MOSUNNY   92  67  43 S21G26    29.85F HX  95
HARTFORD       CLOUDY    67  65  93 N15G24    29.78R
BOSTON         CLOUDY    68  67  96 N21G31    29.86R FOG
DALLAS         MOSUNNY   96  70  42 S17G26    29.81F HX 102
PHILADELPHIA   MOSUNNY   86  61  42 N15       29.88R
LOS ANGELES    MOSUNNY   75  62  64 W15       29.88F
WASHINGTON DC  SUNNY     86  58  38 NW9       29.93F



USA.gov is the U.S. government's official web portal to all federal, state and local government web resources and services.